This demonstration page uses our WeatherBlox Daily Observations layout. Learn more.

Left ArrowRight Arrow

39.51506, -84.39828

Hourly Observations for September 20, 2021

Temp ( °F °C ) Dew Point ( °F °C ) Humidity (%) Winds ( mph kmh ) Pressure ( in mb ) Visibility ( mi km ) Precip ( " mm )
12:15 am 00:15 Partly Cloudy 70 20.9 70 20.9 100 100 N 3 6 30.08 1019 10 16 N/A
12:35 am 00:35 Clear with Nearby Thunderstorms 70 21 70 21 100 100 N N/A 30.08 1019 10 16 N/A
12:55 am 00:55 Partly Cloudy 70 21 70 21 100 100 WNW 3 6 30.07 1018 10 16 N/A
1:15 am 01:15 Mostly Cloudy 70 21.3 70 21 98 98 N N/A 30.08 1019 10 16 N/A
1:35 am 01:35 Mostly Cloudy with Light Rain 73 22.6 70 20.9 90 90 S 8 13 30.08 1019 10 16 N/A
1:55 am 01:55 Mostly Cloudy with Light Rain 72 22.3 71 21.9 98 98 SSE 6 9 30.08 1019 10 16 N/A
2:15 am 02:15 Partly Cloudy 72 22 72 22 100 100 SSE 6 9 30.08 1019 10 16 N/A
2:35 am 02:35 Partly Cloudy with Drizzle 72 22 N/A N/A SSE 5 7 30.08 1019 10 16 N/A
2:55 am 02:55 Mostly Cloudy with Drizzle 72 22 N/A N/A SSE 3 6 30.07 1018 10 16 N/A
3:15 am 03:15 Partly Cloudy 72 22 N/A N/A ENE 5 7 30.06 1018 10 16 N/A
3:35 am 03:35 Mostly Cloudy 72 22 N/A N/A E 5 7 30.06 1018 10 16 N/A
3:55 am 03:55 Cloudy 70 21 N/A N/A N N/A 30.06 1018 10 16 N/A
4:15 am 04:15 Mostly Cloudy 70 21 N/A N/A N N/A 30.05 1018 10 16 N/A
4:35 am 04:35 Mostly Cloudy 70 21 N/A N/A N N/A 30.05 1018 7 11 N/A
4:55 am 04:55 Cloudy 70 21 N/A N/A N N/A 30.05 1018 7 11 N/A
5:15 am 05:15 Cloudy 70 21 N/A N/A N N/A 30.05 1018 7 11 N/A
5:35 am 05:35 Mostly Cloudy 70 21 N/A N/A N N/A 30.05 1018 10 16 N/A
5:55 am 05:55 Cloudy 71 21.8 71 21.6 99 99 SE 3 6 30.05 1018 10 16 N/A
6:15 am 06:15 Cloudy 71 21.8 71 21.4 98 98 SSE 5 7 30.05 1018 10 16 N/A
6:35 am 06:35 Mostly Cloudy 71 21.8 71 21.4 98 98 SSE 5 7 30.05 1018 10 16 N/A
6:55 am 06:55 Mostly Cloudy 71 21.8 71 21.4 98 98 SE 3 6 30.05 1018 10 16 N/A
7:15 am 07:15 Cloudy 71 21.9 71 21.4 97 97 SSE 6 9 30.06 1018 10 16 N/A
7:35 am 07:35 Cloudy with Light Rain 71 21.8 71 21.5 98 98 SE 5 7 30.06 1018 10 16 N/A
7:55 am 07:55 Mostly Cloudy with Light Rain 71 21.8 71 21.5 98 98 SE 5 7 30.06 1018 10 16 N/A
8:15 am 08:15 Mostly Cloudy 71 21.8 71 21.4 98 98 SE 5 7 30.06 1018 10 16 N/A
8:35 am 08:35 Cloudy 72 22 70 21.3 96 96 SSE 6 9 30.07 1018 10 16 N/A
8:55 am 08:55 Cloudy 72 22.1 70 21.2 95 95 SSE 7 11 30.07 1018 10 16 N/A
9:15 am 09:15 Mostly Cloudy 72 22.2 71 21.4 95 95 SSW 7 11 30.08 1019 10 16 N/A
9:35 am 09:35 Cloudy 72 22.4 71 21.5 95 95 SSW 6 9 30.07 1018 10 16 N/A
9:55 am 09:55 Cloudy 73 22.6 71 21.5 94 94 S 3 6 30.07 1018 10 16 N/A
10:15 am 10:15 Cloudy 73 22.9 71 21.5 92 92 S 6 9 30.08 1019 10 16 N/A
10:35 am 10:35 Partly Cloudy 74 23.4 71 21.6 90 90 S 7 11 30.08 1019 10 16 N/A
10:55 am 10:55 Partly Cloudy 75 23.7 71 21.7 89 89 S 6 9 30.08 1018 10 16 N/A
11:15 am 11:15 Mostly Cloudy 75 24.1 71 21.5 85 85 S 7 11 30.08 1018 10 16 N/A
11:35 am 11:35 Mostly Cloudy 76 24.3 71 21.9 87 87 WSW 8 13 30.07 1018 10 16 N/A
11:55 am 11:55 Mostly Cloudy 76 24.5 71 21.9 85 85 SW 8 13 30.07 1018 10 16 N/A
12:15 pm 12:15 Mostly Cloudy 76 24.5 71 21.7 84 84 SW 9 15 30.08 1019 10 16 N/A
12:35 pm 12:35 Mostly Cloudy 76 24.6 72 22.2 87 87 SW 7 11 30.08 1019 10 16 N/A
12:55 pm 12:55 Cloudy 76 24.4 70 20.9 81 81 SSW 13 20 30.08 1019 10 16 N/A
1:15 pm 13:15 Cloudy 76 24.2 70 21 82 82 SW 12 19 30.08 1019 10 16 N/A
1:35 pm 13:35 Cloudy with Light Rain 74 23.4 71 21.7 90 90 SSW 10 17 30.09 1019 10 16 N/A
1:55 pm 13:55 Cloudy with Light Rain 73 23 73 22.7 98 98 SW 9 15 30.09 1019 7 11 0.01 0.25
2:15 pm 14:15 Cloudy with Light Rain 73 23 73 23 100 100 SW 9 15 30.08 1019 7 11 0.02 0.51
2:35 pm 14:35 Cloudy with Light Rain 72 22 N/A N/A SW 6 9 30.08 1019 10 16 0.03 0.76
2:55 pm 14:55 Cloudy with Light Rain 72 22 N/A N/A WSW 7 11 30.08 1019 7 11 0.05 1.27
3:15 pm 15:15 Cloudy with Rain 72 22 N/A N/A WSW 7 11 30.08 1019 5 8 0.04 1.02
3:35 pm 15:35 Cloudy with Rain 72 22 N/A N/A SSW 5 7 30.08 1019 4 6 0.13 3.30
3:55 pm 15:55 Cloudy with Rain 72 22 N/A N/A SW 5 7 30.08 1019 4 6 0.18 4.57
4:15 pm 16:15 Cloudy with Light Rain 72 22 N/A N/A SW 6 9 30.08 1019 7 11 0.02 0.51
4:35 pm 16:35 Cloudy with Light Rain 72 22 N/A N/A S 7 11 30.07 1018 10 16 0.03 0.76
4:55 pm 16:55 Cloudy with Light Rain 72 22 N/A N/A S 6 9 30.07 1018 10 16 0.04 1.02
5:15 pm 17:15 Cloudy with Light Rain 73 23 N/A N/A S 6 9 30.07 1018 10 16 N/A
5:35 pm 17:35 Cloudy with Light Rain 73 22.7 73 22.5 99 99 S 9 15 30.07 1018 10 16 N/A
5:55 pm 17:55 Cloudy with Light Rain 73 22.8 73 22.6 99 99 S 7 11 30.07 1018 10 16 0.01 0.25
6:15 pm 18:15 Cloudy 73 22.8 72 22.4 98 98 S 6 9 30.07 1018 10 16 N/A
6:35 pm 18:35 Cloudy 73 22.7 73 22.6 99 99 SSE 6 9 30.06 1018 10 16 N/A
6:55 pm 18:55 Cloudy with Heavy Rain 72 22 N/A N/A S 13 20 30.08 1019 1 2 0.22 5.59
7:15 pm 19:15 Cloudy with Light Rain 70 21 70 21 100 100 S 9 15 30.08 1019 7 11 0.07 1.78
7:35 pm 19:35 Cloudy with Light Rain 70 21 N/A N/A SSW 9 15 30.08 1019 10 16 0.09 2.29
7:55 pm 19:55 Cloudy with Light Rain 70 21 N/A N/A SSW 8 13 30.07 1018 10 16 0.10 2.54
8:15 pm 20:15 Cloudy with Light Rain 70 21 N/A N/A SSW 6 9 30.07 1018 10 16 N/A
8:35 pm 20:35 Cloudy 70 21 N/A N/A SSW 7 11 30.06 1018 10 16 N/A
8:55 pm 20:55 Mostly Cloudy 70 21 N/A N/A S 6 9 30.06 1018 10 16 N/A
9:15 pm 21:15 Mostly Cloudy 70 21 N/A N/A S 7 11 30.06 1018 10 16 N/A
9:35 pm 21:35 Cloudy 70 21 70 20.9 99 99 S 7 11 30.06 1018 10 16 N/A
9:55 pm 21:55 Cloudy 70 21 70 21 100 100 SE 3 6 30.06 1018 10 16 N/A
10:15 pm 22:15 Cloudy 70 21 N/A N/A S 6 9 30.05 1018 10 16 N/A
10:35 pm 22:35 Cloudy 70 21.3 70 21 98 98 S 3 6 30.05 1018 10 16 N/A
10:55 pm 22:55 Cloudy 70 21.1 70 20.9 99 99 S 6 9 30.04 1017 10 16 N/A
11:15 pm 23:15 Cloudy 70 21.3 69 20.3 94 94 S 6 9 30.04 1017 10 16 N/A
11:35 pm 23:35 Mostly Cloudy 70 21 68 19.9 93 93 S 5 7 30.04 1017 10 16 N/A
11:55 pm 23:55 Partly Cloudy 70 21 67 19.6 92 92 SSE 6 9 30.03 1017 10 16 N/A

Powered by AerisWeather